This is the latest recevied weather packets stored in our database for station/object KE8AFF-13. If no packets are shown the sender has not sent any weather packets the latest 10 day(s).
| Time | Temp. | Humidity | Pressure | Rain* | Wind** | Luminosity | Snow |
|---|---|---|---|---|---|---|---|
| 1778092819 | 12.78° C | 56% | 1012 hPa | 0 mm | - | 233 W/m² | - |
| 1778092514 | 12.78° C | 56% | 1012.1 hPa | 0 mm | - | 144 W/m² | - |
| 1778092211 | 12.78° C | 57% | 1012.3 hPa | 0 mm | - | 129 W/m² | - |
| 1778091908 | 12.22° C | 55% | 1012.2 hPa | 0 mm | - | 131 W/m² | - |
| 1778091605 | 12.22° C | 57% | 1012.5 hPa | 0 mm | - | 132 W/m² | - |
| 1778091303 | 12.22° C | 58% | 1012.5 hPa | 0 mm | - | 141 W/m² | - |
| 1778091000 | 12.78° C | 57% | 1012.5 hPa | 0 mm | - | 166 W/m² | - |
| 1778090697 | 12.78° C | 58% | 1012.2 hPa | 0 mm | - | 183 W/m² | - |
| 1778090393 | 12.78° C | 57% | 1012 hPa | 0 mm | - | 216 W/m² | - |
| 1778090090 | 12.78° C | 58% | 1012 hPa | 0 mm | - | 308 W/m² | - |
| 1778089786 | 12.78° C | 56% | 1011.9 hPa | 0 mm | - | 423 W/m² | - |
| 1778089485 | 13.33° C | 59% | 1012.3 hPa | 0 mm | - | 537 W/m² | - |
| 1778089181 | 12.78° C | 58% | 1012.2 hPa | 0 mm | - | 896 W/m² | - |
| 1778088878 | 13.33° C | 57% | 1012.2 hPa | 0 mm | - | 249 W/m² | - |
| 1778088575 | 13.89° C | 56% | 1012.5 hPa | 0 mm | - | 441 W/m² | - |
| 1778088272 | 13.89° C | 56% | 1012.6 hPa | 0 mm | - | 612 W/m² | - |
| 1778087968 | 13.33° C | 55% | 1012.4 hPa | 0 mm | - | 824 W/m² | - |
| 1778087666 | 12.78° C | 56% | 1012.4 hPa | 0 mm | - | 801 W/m² | - |
| 1778087358 | 12.78° C | 56% | 1012.1 hPa | 0 mm | - | 491 W/m² | - |
| 1778087054 | 12.78° C | 58% | 1012.2 hPa | 0 mm | - | 926 W/m² | - |
| 1778086753 | 12.78° C | 60% | 1012.2 hPa | 0 mm | - | 585 W/m² | - |
| 1778086451 | 12.22° C | 63% | 1012.3 hPa | 0 mm | - | 654 W/m² | - |
| 1778086147 | 12.22° C | 63% | 1012 hPa | 0 mm | - | 564 W/m² | - |
| 1778085843 | 12.78° C | 60% | 1012.1 hPa | 0 mm | - | 450 W/m² | - |
| 1778085542 | 12.22° C | 64% | 1012.1 hPa | 0 mm | - | 661 W/m² | - |
* Rain latest hour (hover to see other rain measurements)
** Current wind speed in m/s (hover to see current wind gust speed)